Tracking 19717 objects as of 25-Jun-2019
HD Live streaming from Space Station
objects crossing your sky now

SL-8 R/B

Track SL-8 R/B now!
10-day predictions


NORAD ID: 13128
Int'l Code: 1982-030B
Perigee: 964.5 km
Apogee: 1,007.7 km
Inclination: 82.9 °
Period: 104.7 minutes
Semi major axis: 7357 km
RCS: 4.5308 m2 (large)
Launch date: April 8, 1982
Source: Commonwealth of Independent States (former USSR) (CIS)
Launch site: PLESETSK MISSILE AND SPACE COMPLEX (PKMTR)

Note: This is a ROCKET BODY
aabbcc
Your satellite tracking list
Your tracking list is empty




NASA's NSSDC Master Catalog

Two Line Element Set (TLE):
1 13128U 82030B   19175.50289977 -.00000022 +00000-0 -38482-4 0  9993
2 13128 082.9251 214.8707 0029354 160.3077 308.5121 13.75759352866816
Source of the keplerian elements: AFSPC